Zurück zum Katalog

SL-8 R/B

AktivLEO
NORAD 4139·ROCKET BODY·🇷🇺 Russia

Gestartet Oct 21, 1969 von Plesetsk Cosmodrome

Loading…

Nächste Überflüge (nächste 24 Stunden)

TLE

AktuellSource: Space-Track

Epoche: Sep 14, 2026, 12:29 UTC

1 04139U 69091B   26257.52045245  .00000253  00000-0  51199-4 0  9990
2 04139  74.0291 100.8213 0004155  43.6156 316.5341 14.66671918 22788

Verfolge SL-8 R/B in Echtzeit mit AllMySat

Download on the App Store